Wind_Speed
17 16 16 16 16 16 16 15 15 14 13 14 13 14 14 14 15 16 16 15 15 15 15 15 14 14 14 14 14 13 12 12 12 13 12 12 12 12
18 18 17 16 17 17 16 17 16 16 16 15 15 15 15 15 14 15 15 16 16 16 15 15 15 14 15 15 16 14 14 13 13 14 13 13 13 12
18 18 18 18 18 18 17 17 17 17 17 16 16 16 16 16 15 15 15 15 15 16 16 15 15 15 15 15 16 15 15 15 15 15 16 15 14 14
19 19 18 18 18 18 18 18 18 18 18 17 17 17 16 15 15 15 16 15 15 15 15 15 16 16 16 15 16 16 16 16 17 17 17 17 16 15
19 19 19 18 19 19 19 19 19 19 19 18 18 17 17 16 16 16 16 16 16 16 16 16 17 17 17 17 17 17 18 18 18 19 18 18 17 17
20 19 19 19 19 19 19 19 19 19 19 19 19 19 18 17 17 17 17 16 16 16 17 17 17 17 18 19 18 18 19 20 20 20 19 19 19 19
19 19 19 20 20 19 19 19 20 20 20 20 19 20 19 19 19 18 19 18 18 17 17 17 17 18 19 19 19 19 20 21 21 22 22 21 21 21
19 19 20 20 20 19 20 20 20 20 20 20 20 20 21 21 20 19 19 20 19 19 18 18 18 19 19 20 20 21 21 22 22 23 24 24 23 23
20 20 21 21 21 20 20 21 22 21 21 21 21 20 20 21 20 20 20 21 20 21 20 20 20 20 20 21 21 22 22 23 24 24 25 25 26 25
21 21 21 22 22 22 21 22 22 22 22 22 22 21 20 20 21 21 22 22 23 23 23 23 23 23 23 22 23 23 24 24 24 25 26 26 27 27
22 22 22 23 23 23 22 22 22 22 22 22 22 22 21 22 22 22 23 23 24 24 24 24 24 24 24 25 24 25 25 25 26 26 26 26 27 27
24 24 23 23 23 23 23 23 23 23 23 23 23 24 24 23 24 23 24 24 24 24 24 25 25 25 25 25 26 27 27 28 28 27 26 26 27 28
25 24 24 24 24 23 23 23 23 23 24 24 24 24 25 25 25 25 25 26 26 26 27 27 27 27 27 27 28 28 29 29 29 29 29 28 27 28
26 26 25 25 25 24 25 25 24 24 25 25 25 25 25 25 26 26 27 27 27 27 28 28 28 28 28 28 29 29 29 28 28 29 29 30 29 29
26 26 27 27 27 26 27 27 26 26 26 26 26 26 26 26 26 26 27 27 28 28 28 28 29 29 29 29 30 29 29 29 29 28 29 29 29 30
28 27 28 28 28 27 27 28 27 27 27 28 28 28 28 28 28 27 28 28 29 29 30 29 29 30 31 31 31 30 30 30 30 30 30 31 31 31
30 30 30 29 29 28 28 29 29 28 28 28 28 28 29 28 28 29 29 30 30 31 31 32 31 31 31 32 32 32 32 31 31 32 33 33 32 33
31 30 29 29 29 29 29 29 29 30 29 29 28 28 29 29 29 30 30 31 31 32 32 33 33 33 33 33 34 33 33 32 32 33 34 34 34 34
30 30 29 29 29 28 29 30 30 30 30 30 29 29 29 30 30 30 31 31 31 31 31 32 32 32 32 33 33 34 34 33 33 33 34 34 34 34
30 30 30 29 29 29 29 30 30 30 30 31 30 30 29 29 30 30 31 31 31 30 31 31 31 31 31 32 32 34 34 34 34 34 35 35 35 35
30 30 30 31 31 31 30 30 31 31 31 31 31 31 31 30 29 29 29 29 29 30 30 30 30 31 31 31 32 32 34 35 35 35 36 36 36 36
31 31 31 31 31 31 31 31 31 31 31 31 31 32 31 31 30 29 29 29 30 30 30 30 30 31 31 31 31 32 32 34 35 35 36 36 36 36
32 32 32 31 31 31 31 31 32 31 31 31 31 31 31 31 30 29 29 30 30 31 31 31 31 32 32 32 32 32 33 33 35 36 36 36 36 36
Wind_Direction
291 291 290 288 288 289 292 294 292 288 284 284 280 278 276 273 268 264 262 263 263 265 263 259 259 257 254 255 255 256 256 257 260 260 264 265 268 264
289 287 287 288 288 288 289 289 290 287 285 283 280 279 276 272 270 266 263 263 261 264 263 261 259 259 257 254 254 253 253 256 258 261 264 266 265 265
289 285 284 285 286 287 288 285 285 287 288 283 283 280 277 274 270 268 266 264 261 262 264 261 260 260 259 256 254 254 254 257 259 262 264 265 265 266
288 286 285 283 285 286 287 285 282 282 282 280 279 279 276 275 271 267 265 263 263 263 261 260 260 262 259 256 255 256 259 261 261 262 264 264 265 265
287 284 285 283 283 284 284 284 282 280 280 278 273 273 273 273 272 268 265 263 262 264 264 262 263 262 259 258 257 258 261 263 262 262 264 265 264 264
286 285 284 284 285 284 283 282 282 280 279 278 272 271 271 271 271 269 265 264 263 265 265 264 262 261 260 260 260 259 261 261 262 261 263 264 264 266
286 284 283 282 283 283 282 282 282 282 281 280 274 268 268 268 267 267 265 263 263 263 264 262 262 261 261 260 259 258 259 260 261 262 263 264 264 266
288 286 285 282 281 282 281 280 282 283 283 282 280 272 268 266 264 264 265 265 264 262 263 262 263 263 261 260 258 257 259 261 262 263 264 262 263 265
289 287 286 284 283 283 283 281 280 280 281 281 281 277 271 267 264 262 261 261 264 264 263 264 263 264 263 263 260 260 260 260 262 263 265 264 264 265
290 288 287 285 283 282 283 282 281 280 279 279 279 277 271 267 265 265 263 264 262 264 266 266 264 264 264 263 262 262 262 262 263 265 265 265 264 265
289 289 288 286 284 282 282 282 282 280 278 278 278 276 273 269 266 265 264 264 264 264 264 265 264 264 263 264 264 265 266 266 266 267 266 265 265 265
290 290 289 288 285 283 282 282 281 279 279 278 277 276 274 272 270 267 266 265 265 263 262 263 264 264 264 264 264 265 267 268 267 266 267 266 266 266
287 288 288 288 287 284 282 281 282 280 279 278 277 275 273 271 272 271 268 267 266 264 263 262 263 263 265 266 266 265 266 267 268 268 267 267 267 267
286 286 286 287 286 284 281 281 280 279 278 277 277 276 273 272 271 271 269 268 266 265 265 264 264 264 265 267 267 266 267 267 268 268 268 268 270 271
286 286 284 284 285 284 282 281 280 278 277 276 275 276 275 273 273 272 269 268 266 266 266 266 266 267 266 268 269 268 269 269 269 268 268 269 270 272
287 287 285 284 285 284 283 281 281 279 277 275 274 274 275 275 274 273 273 272 271 269 269 269 269 268 268 268 269 269 268 269 270 271 269 269 271 272
288 288 286 284 284 283 282 281 280 279 278 277 275 273 274 275 274 273 274 273 272 272 271 271 272 271 270 268 268 269 269 270 271 272 271 271 272 273
288 287 286 283 282 282 281 280 278 278 277 276 276 275 274 274 274 274 275 275 274 273 273 272 272 271 271 271 271 271 271 270 270 270 271 271 272 273
288 288 286 283 282 281 280 279 278 278 277 276 275 274 274 274 274 274 274 273 273 273 273 272 271 271 271 271 271 271 271 271 271 270 271 272 273 274
289 289 286 283 282 282 281 279 278 278 277 275 274 274 274 274 274 273 273 272 272 272 272 272 271 271 271 271 271 271 271 271 271 271 271 272 273 273
288 288 286 283 281 281 281 279 277 277 276 274 273 273 274 274 274 273 273 272 272 272 272 272 273 273 272 272 272 272 272 272 273 273 273 273 273 273
286 286 285 284 282 281 280 278 277 276 276 275 273 273 273 274 274 273 271 271 271 272 272 273 274 275 275 275 274 273 274 274 275 276 276 274 274 274
284 285 285 284 282 280 280 280 278 277 277 276 275 274 273 272 272 272 271 270 271 272 272 273 274 276 277 276 276 276 275 275 276 277 278 277 275 274
Height
5839 5838 5837 5836 5835 5834 5832 5831 5830 5829 5828 5827 5826 5826 5825 5824 5824 5823 5823 5823 5823 5823 5823 5823 5823 5823 5823 5824 5824 5824 5825 5825 5825 5825 5825 5825 5825 5824
5834 5833 5832 5831 5829 5828 5827 5826 5825 5824 5823 5823 5822 5821 5821 5820 5819 5819 5819 5818 5819 5819 5818 5818 5819 5819 5819 5820 5820 5820 5821 5821 5821 5821 5821 5821 5821 5821
5829 5828 5826 5825 5824 5823 5822 5821 5820 5819 5818 5818 5817 5816 5815 5815 5814 5814 5814 5814 5814 5814 5814 5814 5814 5814 5815 5815 5816 5816 5816 5816 5817 5817 5817 5817 5817 5817
5823 5822 5821 5820 5819 5818 5817 5816 5815 5814 5813 5812 5811 5811 5810 5810 5809 5809 5809 5809 5809 5809 5809 5809 5810 5810 5810 5811 5811 5811 5812 5812 5812 5812 5812 5812 5813 5813
5818 5816 5815 5814 5813 5812 5811 5810 5809 5808 5807 5807 5806 5806 5805 5804 5804 5804 5804 5804 5804 5804 5804 5805 5805 5805 5805 5806 5806 5806 5807 5807 5807 5807 5808 5808 5808 5808
5812 5811 5810 5809 5808 5807 5805 5804 5803 5803 5802 5801 5800 5800 5800 5799 5799 5799 5799 5800 5800 5800 5799 5799 5800 5800 5800 5801 5801 5801 5801 5802 5802 5802 5802 5802 5803 5803
5806 5805 5804 5803 5802 5801 5800 5799 5798 5797 5796 5795 5794 5794 5794 5794 5794 5794 5794 5794 5794 5794 5794 5794 5794 5794 5795 5795 5795 5796 5796 5796 5796 5796 5796 5797 5797 5797
5800 5799 5798 5797 5796 5795 5794 5793 5792 5791 5790 5789 5788 5788 5788 5788 5788 5788 5788 5788 5789 5789 5789 5789 5789 5789 5789 5789 5789 5790 5790 5789 5789 5790 5790 5790 5791 5791
5794 5793 5792 5791 5790 5789 5788 5787 5786 5785 5784 5783 5782 5782 5782 5781 5781 5782 5782 5782 5783 5782 5782 5782 5783 5783 5783 5783 5783 5783 5783 5783 5783 5783 5783 5783 5784 5784
5788 5787 5785 5784 5783 5782 5781 5780 5779 5778 5778 5777 5776 5776 5775 5775 5775 5775 5775 5775 5776 5776 5776 5776 5776 5776 5777 5777 5777 5777 5777 5776 5776 5776 5776 5776 5776 5776
5781 5780 5778 5777 5776 5775 5775 5774 5773 5772 5771 5770 5769 5769 5768 5768 5768 5768 5768 5768 5768 5769 5769 5769 5769 5769 5770 5770 5770 5769 5769 5769 5769 5769 5768 5768 5768 5768
5774 5773 5771 5770 5769 5768 5767 5766 5766 5765 5764 5763 5762 5762 5761 5761 5760 5761 5761 5761 5761 5761 5761 5762 5762 5762 5762 5762 5762 5762 5762 5761 5761 5761 5761 5760 5760 5760
5767 5765 5764 5763 5761 5760 5759 5759 5758 5757 5757 5756 5755 5754 5754 5753 5753 5753 5753 5753 5753 5753 5754 5754 5754 5754 5754 5754 5754 5754 5754 5753 5753 5752 5752 5752 5751 5751
5759 5757 5756 5755 5754 5752 5751 5750 5750 5749 5748 5748 5747 5747 5746 5746 5745 5745 5745 5745 5745 5745 5745 5745 5746 5746 5746 5746 5746 5745 5745 5744 5744 5744 5744 5743 5743 5742
5750 5749 5747 5746 5745 5744 5743 5742 5741 5740 5740 5739 5739 5739 5738 5738 5737 5737 5736 5736 5736 5736 5736 5736 5737 5737 5737 5737 5737 5737 5736 5736 5736 5735 5735 5735 5734 5733
5742 5740 5739 5737 5736 5735 5734 5733 5732 5731 5731 5730 5730 5730 5730 5729 5729 5728 5728 5728 5728 5728 5727 5727 5727 5728 5728 5728 5728 5728 5727 5727 5726 5726 5726 5725 5724 5724
5733 5731 5729 5728 5727 5726 5725 5724 5723 5723 5722 5721 5721 5721 5721 5721 5720 5720 5719 5719 5719 5719 5718 5718 5718 5718 5718 5718 5718 5718 5717 5716 5716 5716 5715 5715 5714 5713
5723 5721 5720 5719 5718 5717 5716 5715 5714 5714 5713 5712 5712 5712 5711 5711 5711 5710 5710 5710 5709 5709 5709 5708 5708 5708 5708 5707 5707 5707 5706 5706 5705 5705 5704 5704 5704 5703
5713 5712 5711 5710 5709 5708 5707 5706 5705 5704 5704 5703 5702 5702 5701 5701 5701 5701 5700 5700 5700 5699 5699 5698 5698 5698 5698 5698 5697 5696 5696 5695 5695 5694 5693 5693 5693 5692
5704 5702 5701 5700 5699 5698 5697 5696 5695 5694 5694 5693 5693 5692 5692 5691 5691 5691 5690 5690 5690 5689 5689 5688 5688 5688 5687 5687 5687 5686 5685 5684 5684 5683 5683 5682 5681 5681
5694 5692 5691 5689 5688 5688 5687 5685 5684 5684 5683 5683 5682 5682 5682 5681 5681 5680 5680 5680 5680 5679 5679 5679 5678 5677 5677 5676 5676 5675 5674 5673 5672 5672 5671 5670 5669 5669
5684 5683 5681 5679 5678 5677 5676 5675 5674 5673 5673 5672 5672 5671 5671 5671 5671 5670 5670 5670 5670 5670 5669 5669 5668 5667 5666 5666 5665 5665 5664 5662 5660 5659 5659 5658 5657 5656
5674 5672 5671 5669 5668 5667 5665 5664 5663 5663 5662 5661 5661 5661 5660 5660 5660 5660 5660 5660 5660 5660 5659 5659 5658 5657 5656 5655 5654 5653 5653 5651 5650 5648 5648 5646 5645 5644